Satellite-Ground Cal/Val Site Overpasses Predictions

Prediction of Satellite NPP Overpassing Cal/Val Site: Antarctic Dome C

Ground Cal/Val Site Location: Latitude: -75.10, Longitude: 123.35; Satellite-Ground Site NADIR distance within 100 km.

Table of predicted overpasses for the next 14.0 days since TLE Epoch: 8/17/2014
Interval Starting Time Ending Time Minimum Distance Time Minimum Distance (km)
1 08/18/2014 14:43:58 08/18/2014 14:44:15 08/18/2014 14:44:06 81.19
2 08/19/2014 07:45:32 08/19/2014 07:46:00 08/19/2014 07:45:46 30.70
3 08/20/2014 07:26:50 08/20/2014 07:27:07 08/20/2014 07:26:59 79.31
4 08/22/2014 15:09:09 08/22/2014 15:09:31 08/22/2014 15:09:20 63.16
5 08/23/2014 14:50:19 08/23/2014 14:50:45 08/23/2014 14:50:32 45.95
6 08/24/2014 07:52:01 08/24/2014 07:52:23 08/24/2014 07:52:12 66.26
7 08/25/2014 07:33:11 08/25/2014 07:33:37 08/25/2014 07:33:24 41.52
8 08/28/2014 14:56:43 08/28/2014 14:57:12 08/28/2014 14:56:58 10.26


NCC Satellite Cal/Val Overpasses Prediction Service
